DateTime,Index
1990071912,0.0
1990071918,0.0
1990072000,0.0
1990072006,0.0
1990072012,0.0
1990072018,0.0
1990072100,1225.0
1990072106,2025.0
1990072112,3025.0
1990072118,4225.0
1990072200,5625.0
1990072206,8100.0
1990072212,11025.0
1990072218,13225.0
1990072300,15625.0
1990072306,16900.0
1990072312,18225.0
1990072318,18225.0
1990072400,16900.0
1990072406,15625.0
1990072412,14400.0
1990072418,13225.0
1990072500,13225.0
1990072506,12100.0
1990072512,12100.0
1990072518,12100.0
1990072600,11025.0
1990072606,11025.0
1990072612,10000.0
1990072618,8100.0
1990072700,6400.0
1990072706,5625.0
1990072712,4900.0
1990072718,4225.0
1990072800,3600.0
1990072806,3025.0
1990072812,2500.0
1990072818,2025.0
1990072900,2025.0
1990072906,1600.0
1990072912,1225.0
1990072918,1225.0
1990073000,0.0
1990073006,0.0
1990073012,0.0
1990073018,0.0
1990073100,0.0
